When you browse on this site, cookies collect data to enhance your experience and personalize the content and advertising you see.
Visit our Privacy Policy to learn more. By continuing to use the site, you agree to this use of cookies and data.
  • In Hungary
  • List of Countries
  • For 7 days
  • Water Temperature
  • Weather Map
  • News
  • Weather Widgets
  • user-avatar
    Login

    Hourly Weather Akbulatovo

    Today, 25 February, Tuesday

    Time Temperature Precipitation Wind Pressure Humidity
    00:00 -7°C° 0 mm 4 mps 741 mmHg 95%
    01:00 -5°C° 0 mm 4 mps 741 mmHg 95%
    02:00 -4°C° 0 mm 4 mps 741 mmHg 95%
    03:00 -4°C° 0 mm 4 mps 741 mmHg 95%
    04:00 -3°C° 0.1 mm 4 mps 740 mmHg 95%
    05:00 -3°C° 0.1 mm 4 mps 740 mmHg 96%
    06:00 -4°C° 0.1 mm 5 mps 739 mmHg 96%
    07:00 -2°C° 0.1 mm 5 mps 739 mmHg 97%
    08:00 -2°C° 0.1 mm 5 mps 739 mmHg 98%
    09:00 -1°C° 0.1 mm 5 mps 739 mmHg 98%
    10:00 -2°C° 0.4 mm 6 mps 738 mmHg 98%
    11:00 -2°C° 0.4 mm 6 mps 738 mmHg 98%
    12:00 -3°C° 0.4 mm 7 mps 737 mmHg 98%
    13:00 -2°C° 0.6 mm 7 mps 737 mmHg 98%
    14:00 -2°C° 0.6 mm 7 mps 736 mmHg 98%
    15:00 -2°C° 0.6 mm 7 mps 736 mmHg 98%
    16:00 -2°C° 1 mm 7 mps 735 mmHg 98%
    17:00 -3°C° 1 mm 7 mps 735 mmHg 97%
    18:00 -3°C° 1 mm 6 mps 734 mmHg 97%
    19:00 -3°C° 0.4 mm 6 mps 734 mmHg 98%
    20:00 -2°C° 0.4 mm 5 mps 734 mmHg 98%
    21:00 -2°C° 0.4 mm 4 mps 733 mmHg 98%
    22:00 -2°C° 0.4 mm 4 mps 733 mmHg 98%
    23:00 -1°C° 0.4 mm 3 mps 733 mmHg 98%

    Tomorrow, 26 February, Wednesday

    Time Temperature Precipitation Wind Pressure Humidity
    00:00 -1°C° 0.4 mm 2 mps 733 mmHg 98%
    01:00 -1°C° 0.2 mm 3 mps 733 mmHg 98%
    02:00 -1°C° 0.2 mm 3 mps 733 mmHg 98%
    03:00 -1°C° 0.2 mm 3 mps 733 mmHg 98%
    04:00 -2°C° 0.1 mm 5 mps 734 mmHg 96%
    05:00 -4°C° 0.1 mm 6 mps 734 mmHg 95%
    06:00 -6°C° 0.1 mm 8 mps 735 mmHg 94%
    07:00 -6°C° 0.1 mm 8 mps 735 mmHg 92%
    08:00 -7°C° 0.1 mm 8 mps 736 mmHg 91%
    09:00 -8°C° 0.1 mm 8 mps 737 mmHg 89%
    10:00 -8°C° 0 mm 8 mps 737 mmHg 89%
    11:00 -7°C° 0 mm 7 mps 738 mmHg 89%
    12:00 -7°C° 0 mm 7 mps 739 mmHg 88%
    13:00 -7°C° 0 mm 7 mps 739 mmHg 88%
    14:00 -6°C° 0 mm 6 mps 740 mmHg 89%
    15:00 -6°C° 0 mm 6 mps 740 mmHg 89%
    16:00 -7°C° 0 mm 5 mps 741 mmHg 90%
    17:00 -8°C° 0 mm 4 mps 742 mmHg 91%
    18:00 -8°C° 0 mm 3 mps 742 mmHg 92%
    19:00 -9°C° 0 mm 3 mps 742 mmHg 91%
    20:00 -9°C° 0 mm 3 mps 743 mmHg 91%
    21:00 -10°C° 0 mm 3 mps 743 mmHg 91%
    22:00 -10°C° 0 mm 3 mps 743 mmHg 90%
    23:00 -10°C° 0 mm 3 mps 743 mmHg 89%

    Day after tomorrow, 27 February, Thursday

    Time Temperature Precipitation Wind Pressure Humidity
    00:00 -10°C° 0 mm 3 mps 743 mmHg 88%
    01:00 -10°C° 0 mm 4 mps 743 mmHg 89%
    02:00 -9°C° 0 mm 4 mps 742 mmHg 90%
    03:00 -8°C° 0 mm 5 mps 742 mmHg 91%
    04:00 -7°C° 0.1 mm 5 mps 742 mmHg 92%
    05:00 -6°C° 0.1 mm 6 mps 742 mmHg 94%
    06:00 -5°C° 0.1 mm 6 mps 741 mmHg 95%
    07:00 -4°C° 0.4 mm 6 mps 741 mmHg 96%
    08:00 -3°C° 0.4 mm 6 mps 741 mmHg 97%
    09:00 -2°C° 0.4 mm 6 mps 741 mmHg 98%
    10:00 -2°C° 0.2 mm 6 mps 742 mmHg 98%
    11:00 -2°C° 0.2 mm 6 mps 742 mmHg 98%
    12:00 -2°C° 0.2 mm 6 mps 742 mmHg 98%
    13:00 -2°C° 0.2 mm 6 mps 742 mmHg 98%
    14:00 -2°C° 0.2 mm 6 mps 742 mmHg 98%
    15:00 -2°C° 0.2 mm 6 mps 742 mmHg 98%
    16:00 -3°C° 0.1 mm 6 mps 742 mmHg 96%
    17:00 -3°C° 0.1 mm 6 mps 742 mmHg 94%
    18:00 -3°C° 0.1 mm 6 mps 742 mmHg 92%
    19:00 -2°C° 0.1 mm 6 mps 742 mmHg 91%
    20:00 -2°C° 0.1 mm 6 mps 742 mmHg 89%
    21:00 -2°C° 0.1 mm 6 mps 742 mmHg 88%
    22:00 -2°C° 0 mm 6 mps 742 mmHg 90%
    23:00 -2°C° 0 mm 7 mps 742 mmHg 93%

    28 February, Friday

    Time Temperature Precipitation Wind Pressure Humidity
    00:00 -2°C° 0 mm 7 mps 741 mmHg 96%
    01:00 -2°C° 0.2 mm 7 mps 741 mmHg 95%
    02:00 -2°C° 0.2 mm 7 mps 741 mmHg 94%
    03:00 -2°C° 0.2 mm 8 mps 741 mmHg 93%
    04:00 -2°C° 0 mm 8 mps 741 mmHg 95%
    05:00 -2°C° 0 mm 7 mps 741 mmHg 96%
    06:00 -2°C° 0 mm 7 mps 741 mmHg 97%
    07:00 -2°C° 0 mm 7 mps 742 mmHg 98%
    08:00 -1°C° 0 mm 7 mps 742 mmHg 99%
    09:00 -1°C° 0 mm 8 mps 742 mmHg 99%
    10:00 -1°C° 0 mm 7 mps 743 mmHg 99%
    11:00 -1°C° 0 mm 7 mps 743 mmHg 99%
    12:00 -1°C° 0 mm 7 mps 743 mmHg 99%
    13:00 -1°C° 0 mm 7 mps 743 mmHg 99%
    14:00 -1°C° 0 mm 7 mps 743 mmHg 99%
    15:00 -1°C° 0 mm 7 mps 743 mmHg 99%
    16:00 -1°C° 0 mm 7 mps 743 mmHg 95%
    17:00 -1°C° 0 mm 8 mps 743 mmHg 91%
    18:00 -2°C° 0 mm 8 mps 743 mmHg 86%
    19:00 -2°C° 0 mm 8 mps 743 mmHg 84%
    20:00 -2°C° 0 mm 8 mps 743 mmHg 81%
    21:00 -2°C° 0 mm 8 mps 743 mmHg 78%
    22:00 -2°C° 0 mm 8 mps 742 mmHg 79%
    23:00 -2°C° 0 mm 8 mps 742 mmHg 79%

    29 February, Saturday

    Time Temperature Precipitation Wind Pressure Humidity
    00:00 -2°C° 0 mm 8 mps 741 mmHg 80%
    01:00 -4°C° 0 mm 8 mps 740 mmHg 81%
    02:00 -4°C° 0 mm 8 mps 740 mmHg 81%
    03:00 -4°C° 0 mm 8 mps 740 mmHg 81%
    04:00 -4°C° 0.3 mm 9 mps 740 mmHg 86%
    05:00 -4°C° 0.3 mm 9 mps 739 mmHg 91%
    06:00 -4°C° 0.3 mm 9 mps 739 mmHg 95%
    07:00 -4°C° 0.4 mm 8 mps 740 mmHg 96%
    08:00 -3°C° 0.4 mm 7 mps 740 mmHg 97%
    09:00 -3°C° 0.4 mm 6 mps 741 mmHg 98%
    10:00 -3°C° 0.1 mm 6 mps 741 mmHg 96%
    11:00 -2°C° 0.1 mm 5 mps 742 mmHg 94%
    12:00 -2°C° 0.1 mm 5 mps 743 mmHg 93%
    13:00 -2°C° 0 mm 4 mps 743 mmHg 90%
    14:00 -2°C° 0 mm 4 mps 744 mmHg 88%
    15:00 -1°C° 0 mm 3 mps 744 mmHg 86%
    16:00 -2°C° 0 mm 3 mps 745 mmHg 86%
    17:00 -3°C° 0 mm 2 mps 746 mmHg 86%
    18:00 -4°C° 0 mm 2 mps 746 mmHg 86%
    19:00 -4°C° 0 mm 2 mps 747 mmHg 87%
    20:00 -5°C° 0 mm 2 mps 747 mmHg 88%
    21:00 -5°C° 0 mm 2 mps 748 mmHg 89%
    22:00 -5°C° 0 mm 2 mps 748 mmHg 89%
    23:00 -2°C° 0 mm 1 mps 748 mmHg 90%

    1 March, Sunday

    Time Temperature Precipitation Wind Pressure Humidity
    00:00 -2°C° 0 mm 1 mps 748 mmHg 90%
    01:00 -3°C° 0 mm 1 mps 748 mmHg 89%
    02:00 -5°C° 0 mm 2 mps 749 mmHg 89%
    03:00 -6°C° 0 mm 2 mps 749 mmHg 89%
    04:00 -4°C° 0 mm 1 mps 749 mmHg 89%
    05:00 -4°C° 0 mm 1 mps 749 mmHg 88%
    06:00 -4°C° 0 mm 1 mps 749 mmHg 88%
    07:00 -4°C° 0 mm 1 mps 749 mmHg 88%
    08:00 -3°C° 0 mm 1 mps 749 mmHg 89%
    09:00 -5°C° 0 mm 2 mps 749 mmHg 89%
    10:00 -2°C° 0 mm 1 mps 750 mmHg 88%
    11:00 -1°C° 0 mm 1 mps 750 mmHg 88%
    12:00 0°C° 0 mm 1 mps 750 mmHg 87%
    13:00 -1°C° 0 mm 1 mps 750 mmHg 88%
    14:00 -1°C° 0 mm 1 mps 749 mmHg 89%
    15:00 -1°C° 0 mm 1 mps 749 mmHg 91%
    16:00 -3°C° 0 mm 2 mps 749 mmHg 91%
    17:00 -4°C° 0 mm 2 mps 749 mmHg 90%
    18:00 -4°C° 0 mm 2 mps 749 mmHg 90%
    19:00 -5°C° 0 mm 2 mps 749 mmHg 92%
    20:00 -5°C° 0 mm 2 mps 749 mmHg 93%
    21:00 -5°C° 0 mm 2 mps 749 mmHg 94%
    22:00 -5°C° 0 mm 2 mps 749 mmHg 94%
    23:00 -5°C° 0 mm 2 mps 749 mmHg 95%
    Show more